Dewpoint
50 51 51 51 51 51 51 52 53 53 54 55 58 58 58 58 57 56 54 52 51 50 49 46 44 44 39 37 34 43 50 48 37 32 26 24 22 20 19 19 15 13 14 16 12 10 12
49 49 50 49 49 49 50 51 52 53 53 53 54 56 58 58 57 57 55 52 51 50 47 44 44 43 39 38 34 24 29 37 31 30 27 23 22 21 19 19 17 15 14 15 16 13 17
49 48 48 49 49 50 50 51 52 52 52 53 53 54 56 57 57 57 55 53 51 48 45 44 44 36 37 40 37 29 28 25 30 27 26 24 20 19 19 19 19 19 18 20 20 18 16
46 47 47 48 49 50 48 48 49 49 51 51 52 53 53 55 56 56 55 52 50 46 44 44 43 38 37 40 35 33 29 28 27 30 27 25 23 20 20 21 21 18 17 16 19 18 17
44 44 46 46 47 49 48 49 50 51 51 51 52 52 52 52 55 56 53 51 48 46 44 42 39 39 39 36 33 32 32 28 26 26 27 24 25 23 23 23 21 19 16 17 18 17 17
43 43 44 46 47 49 50 50 50 50 50 50 50 50 53 52 53 54 51 48 45 42 41 40 36 38 39 38 36 26 29 24 19 19 24 24 21 20 20 18 15 16 15 16 15 15 16
43 42 45 47 48 49 48 47 48 48 49 49 49 50 52 53 53 50 46 44 43 42 40 39 38 37 36 32 28 29 31 23 16 15 21 23 19 17 18 19 19 17 16 15 13 14 14
44 43 45 47 47 46 46 46 47 47 47 48 49 49 50 53 53 49 49 44 43 39 37 41 40 40 38 38 35 35 32 29 26 18 19 19 17 19 19 18 16 15 15 14 13 12 12
46 45 45 46 44 44 44 45 47 47 47 48 49 50 51 53 53 49 49 46 41 40 39 37 35 36 34 36 34 34 34 31 27 25 24 19 15 14 17 17 12 11 13 13 12 13 14
43 46 46 45 44 45 45 46 47 47 46 48 49 50 51 53 47 47 45 41 35 42 34 31 30 32 33 34 32 31 31 30 27 24 24 24 24 19 19 19 16 14 15 15 14 12 9
44 45 46 47 47 46 46 47 47 48 48 49 50 50 51 51 46 44 43 38 37 41 23 21 24 28 27 29 26 22 29 31 28 25 24 25 25 23 21 21 21 16 16 14 12 12 10
44 45 46 46 47 47 46 46 46 47 47 48 50 52 52 50 45 45 39 37 42 32 22 21 20 20 24 26 27 21 21 27 29 25 24 22 23 23 17 15 15 16 14 13 11 9 8
44 45 45 46 47 47 46 46 46 47 48 49 51 53 50 46 42 44 39 40 31 26 23 21 21 21 23 22 22 19 19 21 21 20 20 20 21 23 19 19 18 15 14 12 9 9 9
44 44 45 46 47 47 45 46 47 48 49 51 54 52 50 47 42 40 39 37 26 21 21 20 21 20 19 19 17 16 18 17 20 19 18 24 25 19 20 17 17 16 13 13 17 13 14
43 43 44 45 47 46 44 45 46 48 51 53 51 48 45 45 40 39 40 29 26 22 20 20 20 17 18 19 15 16 17 17 16 19 18 22 19 24 19 16 15 13 16 15 17 19 14
43 43 43 44 46 45 43 44 46 48 52 49 44 42 40 45 42 41 37 31 27 28 28 23 20 20 19 21 15 15 16 19 15 18 20 24 25 21 18 16 15 12 17 19 13 8 6
40 42 43 44 45 45 42 44 48 51 50 46 42 36 39 46 44 38 31 33 35 30 22 19 19 17 17 17 16 12 14 22 21 24 26 24 21 20 19 15 13 14 11 11 11 14 13
40 41 43 43 45 45 42 44 50 49 46 41 37 32 39 45 32 32 31 36 32 27 18 18 17 16 16 18 15 13 12 24 24 27 25 25 23 21 18 15 16 13 12 12 11 9 6
39 41 43 43 45 45 43 42 46 44 43 40 32 31 37 40 29 29 34 33 31 21 20 20 19 18 22 24 15 17 20 25 25 25 21 26 22 16 11 12 15 11 11 11 10 11 9
38 40 41 42 44 45 45 44 44 44 44 40 33 27 30 32 34 33 32 31 25 27 25 23 22 19 20 24 24 24 23 22 24 22 24 19 15 11 5 4 12 12 8 10 12 16 10
38 39 41 41 43 45 46 45 45 44 43 41 37 32 30 27 30 33 33 30 24 19 21 19 22 22 22 23 23 24 27 23 23 27 21 19 15 11 9 6 4 8 9 10 9 12 11
37 39 41 39 44 44 46 46 45 44 43 39 33 34 31 28 27 33 33 31 29 25 22 20 20 20 22 20 19 19 20 19 20 24 22 22 16 16 11 9 7 6 6 3 3 6 6
37 40 39 39 41 43 44 45 45 44 42 37 39 34 31 32 33 31 30 31 29 25 20 19 16 16 15 15 16 17 18 17 17 20 20 20 16 14 9 4 5 2 3 2 2 2 4
39 40 39 39 43 42 43 44 44 43 41 41 35 34 34 29 29 29 27 29 25 20 17 16 17 15 22 23 21 19 18 17 17 15 22 16 15 13 8 10 2 13 20 20 17 15 16
40 40 42 42 42 42 42 43 43 43 42 40 36 35 35 30 30 28 24 21 20 19 18 19 24 24 23 19 10 8 9 10 9 10 13 15 11 11 8 5 5 14 26 25 24 19 28
40 41 42 41 41 41 41 42 43 42 41 39 38 38 35 33 31 24 19 20 19 20 22 25 27 26 21 17 11 3 5 7 16 16 20 16 13 11 11 7 6 25 25 24 27 18 26
40 40 40 40 39 39 38 39 41 40 40 39 37 40 37 29 28 21 20 19 18 18 17 22 22 22 23 21 18 11 9 11 12 20 18 20 17 13 12 14 22 24 27 29 19 20 25
40 40 38 37 37 36 38 40 40 40 39 41 38 38 37 30 27 25 24 22 20 17 17 18 19 22 19 19 19 18 21 16 21 25 20 17 17 17 18 20 17 25 26 22 26 27 26
39 38 37 37 41 40 40 42 42 40 42 41 33 36 37 31 29 30 30 29 26 23 20 21 26 21 24 25 22 23 21 23 23 18 25 22 26 26 23 22 26 26 27 29 30 27 26
Wind_Speed
10 9 9 7 9 11 12 13 12 13 14 15 16 19 21 18 19 18 17 14 11 9 6 6 9 12 12 9 19 12 11 10 11 11 13 12 13 12 20 16 15 25 25 24 24 20 23
11 11 7 8 11 12 13 13 13 14 15 15 16 18 20 19 20 19 17 16 12 9 4 5 8 10 10 19 5 2 8 10 15 12 15 16 15 14 17 23 23 20 19 22 22 22 21
11 10 11 11 13 12 12 13 14 14 15 16 16 17 18 21 20 18 17 17 12 8 2 4 7 9 12 23 7 6 7 13 14 15 17 17 19 19 10 15 19 22 29 28 29 28 30
13 12 14 13 15 10 10 12 12 14 17 18 18 17 17 19 20 18 18 18 13 8 2 4 7 7 10 10 14 18 18 17 13 13 16 14 12 17 21 16 22 18 23 28 22 21 15
15 15 15 15 16 13 12 13 14 16 18 18 19 19 18 19 18 17 18 17 12 6 2 5 5 6 14 3 12 17 21 20 16 13 12 5 11 19 17 20 22 20 27 29 24 14 13
17 17 17 17 16 16 16 16 17 19 20 21 22 21 20 19 17 18 21 14 7 4 4 5 8 5 11 14 7 6 7 16 13 15 14 16 12 21 21 22 28 23 25 27 24 20 17
17 18 19 20 19 17 17 19 19 20 23 25 24 22 20 20 15 27 22 11 4 4 8 15 12 13 6 4 4 9 7 10 14 15 23 20 22 31 26 28 31 30 31 32 26 18 16
18 19 19 18 18 19 20 21 21 23 26 26 24 22 20 21 22 30 19 9 12 6 12 22 26 31 27 24 21 19 15 14 19 27 24 27 31 30 28 29 28 29 30 33 28 24 23
18 19 20 20 20 21 23 24 24 26 28 28 26 23 21 19 29 21 23 13 3 1 7 19 29 29 27 26 37 38 28 28 29 29 31 34 31 29 20 30 31 31 31 29 27 22 18
20 20 20 21 23 22 22 24 27 30 30 29 27 23 21 18 19 12 10 11 8 10 3 17 13 11 20 26 31 30 36 39 33 36 32 30 30 31 24 24 28 30 25 27 24 24 26
22 22 21 20 21 21 22 25 28 31 32 31 28 23 21 37 14 15 13 15 10 5 7 8 5 5 3 19 8 6 14 31 37 34 26 30 23 26 26 31 24 26 23 20 22 22 26
21 22 21 22 22 22 20 24 31 32 32 33 28 18 28 21 11 14 28 19 6 6 13 9 6 8 13 19 21 12 8 22 23 32 32 33 16 17 21 20 26 25 18 19 23 23 27
21 21 21 23 23 21 21 25 32 33 32 33 24 19 37 17 12 29 27 13 8 13 4 14 12 12 17 16 15 17 11 19 25 18 30 27 23 23 15 14 13 18 20 22 18 23 25
22 22 21 22 23 21 21 25 32 31 33 27 19 35 29 15 25 33 19 8 15 20 28 3 12 14 18 15 17 17 18 20 24 23 15 14 12 23 15 22 16 18 20 14 8 19 16
24 22 22 21 21 19 19 24 30 31 29 20 31 13 10 11 30 28 16 14 17 29 13 26 15 17 19 18 12 14 19 22 22 21 12 9 14 9 7 5 4 10 27 17 15 24 17
25 24 23 21 21 18 15 21 29 32 20 35 14 10 3 17 22 22 13 16 20 17 12 16 24 17 17 23 18 20 19 12 21 13 20 8 6 15 10 5 7 9 7 7 10 13 23
24 26 23 23 23 19 12 16 29 24 38 29 12 11 1 12 12 9 15 14 11 17 14 14 19 18 15 14 19 21 11 3 9 10 7 5 9 7 4 11 13 9 13 8 8 10 9
25 25 25 24 23 20 7 8 3 31 28 8 6 8 5 17 12 6 14 6 12 21 13 10 9 15 14 13 11 17 10 3 6 12 8 2 5 9 13 5 3 10 13 16 17 17 20
25 26 25 24 24 24 14 9 6 12 5 7 5 6 7 10 14 14 6 8 15 17 17 12 8 9 5 9 8 8 5 0 4 11 14 15 9 10 12 9 10 11 16 17 17 17 22
25 26 23 24 25 27 23 18 15 7 6 4 8 8 2 4 1 7 10 14 13 15 16 14 9 11 13 10 7 12 11 4 3 5 3 3 14 14 15 6 7 7 17 16 18 17 22
26 27 23 22 28 26 26 26 22 13 6 3 4 7 11 22 19 10 15 14 18 12 9 13 10 14 14 11 13 9 11 9 7 4 3 4 12 13 16 17 8 11 11 15 20 21 22
26 27 23 20 27 24 27 26 23 17 8 2 6 6 8 17 24 12 12 13 18 13 14 17 14 20 18 11 14 13 14 13 10 12 10 4 5 6 13 12 14 18 19 20 23 24 27
29 27 20 14 29 27 25 26 24 20 8 5 7 10 17 22 21 19 16 19 21 19 10 15 14 11 12 5 4 8 4 5 3 10 11 8 7 5 11 5 9 14 20 23 26 24 21
25 26 28 19 25 25 23 23 25 21 14 5 4 5 6 19 22 23 22 24 25 20 12 9 10 10 9 9 8 6 5 4 5 6 10 8 9 8 6 2 12 1 8 9 9 9 11
14 19 29 25 24 22 19 17 27 15 16 11 4 2 5 12 21 19 21 20 17 11 15 13 9 10 12 10 6 6 6 6 10 11 11 10 11 9 12 14 11 9 4 4 4 10 2
13 26 26 23 21 18 17 20 24 13 11 7 3 3 5 12 14 19 21 22 20 18 13 8 9 7 6 5 5 8 8 8 6 7 6 10 14 12 7 10 8 6 4 6 3 15 3
22 25 22 20 18 18 19 16 16 13 13 7 3 2 2 13 6 15 16 19 9 13 9 13 9 6 6 6 7 7 5 4 8 9 8 9 11 16 15 8 2 4 7 2 6 3 9
26 24 22 18 16 19 17 18 20 18 13 10 0 5 2 7 12 9 7 10 7 9 12 16 8 4 9 8 6 5 2 5 3 4 4 8 9 10 9 7 8 13 2 3 5 5 6
25 22 19 16 10 18 18 20 18 16 12 14 3 4 6 6 12 17 16 12 10 8 13 15 2 13 5 6 4 4 4 3 4 7 6 3 2 4 4 5 5 7 8 6 6 6 7
Wind_Direction
298 294 293 302 312 312 305 304 303 302 299 293 272 259 252 239 236 229 218 209 206 228 255 305 320 324 312 267 269 116 139 174 205 223 234 231 237 239 255 270 274 270 265 270 279 268 266
289 287 294 311 308 301 303 302 298 296 291 289 290 281 258 246 238 227 211 200 197 211 243 301 311 312 272 268 288 201 224 195 235 231 247 247 249 255 279 267 269 270 287 278 274 267 262
307 310 310 310 300 294 307 306 302 297 294 288 285 285 280 259 241 230 204 190 182 190 233 302 302 299 262 245 284 261 235 242 243 249 257 254 257 245 241 262 263 261 271 276 264 259 257
293 294 295 299 296 288 304 307 311 305 300 296 289 278 277 276 250 227 194 170 169 166 198 295 285 282 259 258 258 248 248 243 246 254 252 272 257 255 250 259 276 258 259 269 266 252 263
291 288 288 293 292 281 280 283 290 291 292 292 288 280 267 268 256 218 172 151 155 152 218 268 263 249 280 115 239 243 236 237 232 235 232 251 244 240 244 244 259 242 257 262 273 216 243
285 283 288 287 285 285 279 287 294 294 292 289 285 282 268 255 252 181 145 133 137 153 214 209 253 251 237 253 257 245 236 222 223 213 213 219 230 239 228 243 251 258 250 247 247 258 224
281 286 288 291 286 283 288 294 296 295 290 288 287 284 276 250 232 144 123 118 141 220 208 219 219 241 259 233 218 218 176 209 222 221 223 210 227 236 240 237 249 271 276 278 274 284 263
274 283 286 290 291 289 292 295 294 290 290 287 284 283 274 250 175 168 182 195 209 333 281 225 252 263 251 275 265 245 194 213 206 235 233 239 234 248 256 258 255 260 259 263 271 266 268
275 279 284 285 289 291 294 296 292 289 288 286 281 276 261 244 178 174 200 206 68 125 265 275 250 249 249 232 255 255 240 228 239 240 245 242 244 250 254 254 253 246 256 262 268 272 259
271 276 278 279 284 287 288 287 288 286 288 284 276 268 239 191 163 173 204 141 138 95 303 275 237 260 237 238 258 259 241 243 237 245 248 251 264 255 256 264 253 254 251 256 263 263 261
268 270 275 275 277 277 283 284 287 287 286 281 275 267 231 171 150 183 160 149 123 80 255 260 224 90 159 185 315 279 224 227 232 234 235 247 239 248 253 256 257 258 258 265 261 260 263
262 266 271 273 272 271 270 281 286 286 282 280 277 250 178 185 183 158 145 133 113 169 232 220 187 200 205 218 246 262 269 224 234 244 249 247 241 261 267 263 251 252 249 258 256 251 254
260 264 269 273 269 266 274 278 282 285 283 278 256 200 169 161 180 148 137 136 157 220 136 222 221 207 218 227 228 236 234 204 216 224 240 246 245 232 260 264 276 257 248 248 235 230 241
262 264 268 271 266 266 276 283 285 289 282 265 218 171 181 171 151 146 150 144 216 229 228 156 204 205 228 228 232 225 232 229 222 237 253 247 244 236 215 236 226 227 223 245 262 249 276
264 264 265 272 267 259 277 283 286 291 278 213 158 148 145 168 158 157 159 201 217 235 256 216 212 241 234 232 243 214 237 235 228 205 215 218 228 236 236 289 263 246 222 247 272 261 262
266 266 267 271 268 253 279 290 293 285 237 143 132 135 84 168 171 165 200 222 227 235 223 207 222 210 240 221 210 234 226 240 227 225 218 255 236 211 176 230 232 255 355 267 233 262 259
266 265 270 272 265 245 278 305 295 260 155 144 125 136 238 163 162 190 210 207 215 216 204 212 236 246 241 253 220 229 231 207 164 178 235 227 256 162 199 217 234 225 251 256 303 254 265
261 259 262 267 258 229 244 342 48 141 129 95 128 169 192 160 170 192 217 198 225 190 205 201 258 254 240 248 221 242 243 340 198 185 199 214 237 230 240 101 297 260 257 250 241 254 256
258 258 256 256 252 225 199 156 155 111 91 118 93 105 343 175 187 193 204 201 212 177 192 190 216 235 256 207 203 200 193 24 192 192 173 174 224 238 218 212 220 230 232 242 250 264 255
257 254 252 262 243 218 199 178 189 175 124 97 140 121 163 180 242 195 188 193 179 200 204 207 193 187 183 187 193 202 206 165 201 216 356 170 251 249 259 16 338 215 234 229 231 240 252
255 251 246 264 221 215 203 190 182 170 147 121 191 175 185 185 202 219 184 178 175 163 184 192 196 208 200 200 191 205 191 217 215 181 191 230 253 256 267 283 248 270 240 234 236 234 253
259 244 236 249 224 210 200 191 179 169 164 171 171 160 184 180 186 178 181 183 177 173 174 194 215 208 208 210 200 192 178 192 188 187 200 197 247 301 266 267 262 259 255 255 252 254 265
253 229 232 258 213 208 197 201 190 170 162 214 213 237 165 166 173 179 190 183 189 174 186 204 204 177 192 140 56 37 161 205 237 192 197 195 220 235 265 279 279 268 252 252 258 259 266
231 225 230 210 205 202 201 182 179 176 191 266 175 176 174 168 173 184 183 180 179 182 152 144 155 174 91 107 110 107 117 151 193 206 183 221 203 245 262 235 251 53 50 332 310 295 274
228 227 183 176 180 176 170 181 179 180 207 261 134 226 185 171 179 180 175 178 161 123 140 125 79 88 145 159 167 155 177 196 216 222 210 231 235 234 237 247 253 190 74 23 357 287 321
191 187 170 174 159 159 169 187 175 172 213 256 288 329 264 138 171 178 171 149 147 134 126 123 109 132 163 168 200 215 201 214 164 162 223 219 230 222 223 252 259 68 69 352 332 267 32
195 161 157 157 158 168 159 166 169 182 221 227 319 256 260 118 67 175 157 168 158 155 134 145 147 147 198 173 188 214 196 214 173 186 170 181 203 221 227 243 132 19 332 6 222 28 341
151 150 146 147 160 174 181 169 176 200 193 208 251 239 277 98 63 73 92 125 147 158 161 147 136 192 178 194 188 192 217 168 149 83 162 184 200 199 232 239 237 2 187 309 15 46 16
135 145 145 144 157 154 169 183 165 191 188 203 187 189 221 80 104 87 72 50 31 16 120 171 97 163 145 223 156 110 173 169 186 169 182 236 353 21 9 48 69 42 60 37 38 77 74